Powrót do katalogu

STARLINK-31308

AktywnyŁącznośćVLEO
NORAD 59153·PAYLOAD·🇺🇸 United States

Wystrzelony Mar 4, 2024 z Cape Canaveral Space Force Station

Loading…

Następne Przeloty (najbliższe 24 godziny)

TLE

ŚwieżeSource: CelesTrak SupGP

Epoka: Sep 14, 2026, 20:52 UTC

1 59153C 24044B   26257.86993056  .00014211  00000+0  51489-3 0  2570
2 59153  43.0013  71.8038 0001485 276.5929 300.2297 15.27560261    10

Śledź STARLINK-31308 w czasie rzeczywistym z AllMySat

Download on the App Store